This demonstration page uses our WeatherBlox Daily Observations layout. Learn more.

Left ArrowRight Arrow

44.8408, -93.29828

Hourly Observations for October 1, 2016

Temp ( °F °C ) Dew Point ( °F °C ) Humidity (%) Winds ( mph kmh ) Pressure ( in mb ) Visibility ( mi km ) Precip ( " mm )
12:53 am 00:53 Mostly Cloudy 60 15.6 52 11.1 75 75 NE 6 9 30.20 1023 10 16 0.00 0.00
1:53 am 01:53 Mostly Clear 57 13.9 51 10.6 81 81 N 3 6 30.20 1023 10 16 0.00 0.00
2:53 am 02:53 Clear 57 13.9 51 10.6 81 81 NE 5 7 30.18 1022 10 16 0.00 0.00
3:53 am 03:53 Clear 55 12.8 51 10.6 87 87 NNE 3 6 30.18 1022 10 16 0.00 0.00
4:53 am 04:53 Clear 54 12.2 51 10.6 90 90 N 7 11 30.17 1022 10 16 0.00 0.00
5:53 am 05:53 Clear 54 12.2 51 10.6 90 90 N 6 9 30.17 1022 10 16 0.00 0.00
6:53 am 06:53 Mostly Clear 53 11.7 50 10 89 89 NE 5 7 30.18 1022 10 16 0.00 0.00
7:53 am 07:53 Sunny 53 11.7 50 10 89 89 NNE 6 9 30.18 1022 10 16 0.00 0.00
8:53 am 08:53 Sunny 57 13.9 51 10.6 81 81 NNE 8 13 30.18 1022 10 16 0.00 0.00
9:53 am 09:53 Sunny 60 15.6 52 11.1 75 75 NNE 7 11 30.17 1022 10 16 0.00 0.00
10:53 am 10:53 Sunny 64 17.8 53 11.7 68 68 N 6 9 30.16 1021 10 16 0.00 0.00
11:53 am 11:53 Sunny 65 18.3 54 12.2 68 68 NE 7 11 30.15 1021 10 16 0.00 0.00
12:53 pm 12:53 Sunny 67 19.4 55 12.8 66 66 NNE 8 13 30.12 1020 10 16 0.00 0.00
1:53 pm 13:53 Sunny 70 21.1 56 13.3 61 61 NE 7 11 30.10 1019 10 16 0.00 0.00
2:53 pm 14:53 Sunny 71 21.7 55 12.8 57 57 E 7 11 30.08 1019 10 16 0.00 0.00
3:53 pm 15:53 Mostly Sunny 72 22.2 54 12.2 53 53 ENE 8 13 30.07 1018 10 16 0.00 0.00
4:53 pm 16:53 Partly Cloudy 74 23.3 55 12.8 52 52 NE 10 17 30.07 1018 10 16 0.00 0.00
5:53 pm 17:53 Partly Cloudy 72 22.2 54 12.2 53 53 ENE 9 15 30.06 1018 10 16 0.00 0.00
6:53 pm 18:53 Mostly Clear 66 19 48 9 52 52 NNE 7 11 30.18 1022 10 16 0.00 0.00
7:53 pm 19:53 Mostly Clear 67 19.4 52 11.1 59 59 ENE 5 7 30.07 1018 10 16 0.00 0.00
8:53 pm 20:53 Mostly Clear 65 18.3 52 11.1 63 63 NE 5 7 30.07 1018 10 16 0.00 0.00
9:53 pm 21:53 Mostly Clear 63 17.2 53 11.7 70 70 N 3 6 30.07 1018 10 16 0.00 0.00
10:53 pm 22:53 Mostly Clear 60 15.6 54 12.2 80 80 Calm 30.09 1019 10 16 0.00 0.00
11:53 pm 23:53 Clear 60 15.6 54 12.2 80 80 Calm 30.09 1019 10 16 0.00 0.00

Powered by AerisWeather